Regional Weather Roundup
Issued by NWS

Home | Current Version | Previous Version | Graphics & Text | Print | Product List | Glossary On
Versions: 1 2 3 4 5 6 7 8 9 10 11 12 13 14 15 16 17 18 19 20 21 22 23 24 25 26 27 28 29 30 31 32 33 34 35 36 37 38 39 40 41 42 43 44 45 46 47 48 49 50
000
ASUS45 KBOU 230407
RWRCO

WEATHER ROUNDUP FOR COLORADO
NATIONAL WEATHER SERVICE DENVER/BOULDER CO
1000 PM MDT FRI AUG 22 2014

NOTE: "FAIR" INDICATES FEW OR NO CLOUDS BELOW 12000 FEET WITH NO
SIGNIFICANT WEATHER AND/OR OBSTRUCTIONS TO VISIBILITY.

COZ001>005-013-030-031-230500-
...NORTHWEST COLORADO...

CITY           SKY/WX    TMP DP  RH WIND       PRES   REMARKS
CRAIG          MOCLDY    57  52  83 CALM      30.09R
HAYDEN         MOCLDY    55  46  71 CALM      30.11S
MEEKER         CLOUDY    59  53  80 NE5       30.09S
MOUNT WERNER   NOT AVBL
STEAMBOAT SPGS CLOUDY    56  49  78 CALM      30.13F
WALDEN         CLOUDY    50  43  76 E5        30.18F
$$

COZ006>008-011-230500-
...WEST CENTRAL VALLEYS...

CITY           SKY/WX    TMP DP  RH WIND       PRES   REMARKS
GRAND JUNCTION MOCLDY    65  49  56 SE13G22   30.00R
MONTROSE       MOCLDY    59  52  77 SE3       30.12R
EAGLE          MOCLDY    64  46  52 W6        30.13S
RIFLE          MOCLDY    62  54  74 S5        30.06R
DELTA          RAIN      66  53  62 NE8       30.07S
NUCLA          MOCLDY    57  46  67 E9        30.14S
$$

COZ017>023-064>068-230500-
...SOUTHWEST COLORADO...

CITY           SKY/WX    TMP DP  RH WIND       PRES   REMARKS
DURANGO        PTCLDY    53  50  89 CALM      30.21S
CORTEZ         PTCLDY    57  51  80 CALM      30.15S
PAGOSA SPRINGS   N/A     49  47  93 CALM      30.27S
TELLURIDE      PTCLDY    48  43  81 CALM      30.31F
WOLF CREEK PAS NOT AVBL
$$

COZ009-010-012-014-032>034-037-058>063-230500-
...CENTRAL COLORADO...

CITY           SKY/WX    TMP DP  RH WIND       PRES   REMARKS
ASPEN          MOCLDY    56  46  69 SE7       30.19S
BUENA VISTA    MOCLDY    47  43  87 CALM      30.24S
COPPER MTN     MOCLDY    46  36  66 S12       30.45F
BERTHOUD PASS  FAIR      37  37 100 SW5       30.49F
COTTONWOOD PAS CLOUDY    50  45  81 CALM      30.34F
GUNNISON       CLOUDY    54  46  76 N3        30.25S
KREMMLING      CLOUDY    57  50  77 CALM      30.16S
LEADVILLE      MOCLDY    45  43  93 S6        30.32S
SALIDA         MOCLDY    57  47  70 S6        30.29S
SUNLIGHT       MOCLDY    45  43  93 S3        30.37S
WILKERSON PASS NOT AVBL
$$

COZ069>075-230500-
...SAN LUIS VALLEY/SANGRE DE CRISTO MOUNTAINS...

CITY           SKY/WX    TMP DP  RH WIND       PRES   REMARKS
ALAMOSA        MOCLDY    50  48  93 E6        30.25S
LA VETA PASS   NOT AVBL
SAGUACHE       CLOUDY    52  50  93 S3        30.28S
$$

COZ035-036-038>040-230500-
...NORTHERN COLORADO FRONT RANGE...

CITY           SKY/WX    TMP DP  RH WIND       PRES   REMARKS
DENVER INTL AP CLOUDY    60  58  92 S5        30.08R
DMNS CITY PARK   N/A     62  57  83 E3        30.06F
AURORA         MOCLDY    60  59  97 SE2       30.10S
FRONT RANGE AP CLOUDY    61  59  94 SE3       30.09S
ERIE MUNI ARPT CLOUDY    63  58  82 CALM      30.07S
BOULDER MUN AP CLOUDY    63  59  88 NE3       30.07S
CENTENNIAL     LGT RAIN  60  56  86 E12       30.09S
BROOMFIELD     MOCLDY    63  57  82 E5        30.09F
FORT COLLINS   CLOUDY    61  55  82 CALM      30.09F
LONGMONT       CLOUDY    65  58  79 CALM      30.09S
$$

COZ041-046-047-076>085-087-088-230500-
...PIKES PEAK/PALMER DIVIDE AND SOUTHERN FOOTHILLS...

CITY           SKY/WX    TMP DP  RH WIND       PRES   REMARKS
COLO. SPRINGS  CLOUDY    61  55  81 NE8       30.11F
A. F. ACADEMY  CLOUDY    59  55  85 NE7       30.13S
ELLICOTT       CLOUDY    59  56  89 N3        30.11R
FALCON         CLOUDY    57  55  93 CALM      30.17R
FORT CARSON    MOCLDY    61  55  82 N8        30.09R
LIMON          CLOUDY    59  58  96 NE21      30.03S
MONUMENT HILL  CLOUDY    54  54 100 SE6       30.15F FOG
TRINIDAD       MOCLDY    63  57  81 W3        30.09R
$$

COZ042>045-048>051-090-091-230500-
...NORTHEAST COLORADO...

CITY           SKY/WX    TMP DP  RH WIND       PRES   REMARKS
GREELEY ARPT   CLOUDY    61  54  77 NW5       30.05F
AKRON          CLOUDY    60  58  92 NE17G29   29.96F
BURLINGTON     CLOUDY    65  62  90 N6        29.99F
WRAY             N/A     67  67 100 CALM      30.00F
STERLING       RAIN      63  63 100 NE10      29.99F
HOLYOKE        NOT AVBL
FORT MORGAN    CLOUDY    60  58  92 NE9       30.00S
$$

COZ086-089-092>099-230500-
...SOUTHEAST COLORADO...

CITY           SKY/WX    TMP DP  RH WIND       PRES   REMARKS
PUEBLO         PTCLDY    67  53  61 CALM      30.02S
LA JUNTA       MOCLDY    67  63  87 E5        30.00F
LAMAR          MOCLDY    66  62  87 S6        29.95S
SPRINGFIELD      N/A     66  62  87 NW6       30.03R
$$


USA.gov is the U.S. government's official web portal to all federal, state and local government web resources and services.